Tracking 31027 objects as of 19-Jul-2025
HD Live streaming from Space Station
objects crossing your sky now

STARLINK-11604

Track STARLINK-11604 now!
10-day predictions
STARLINK-11604 is classified as:


NORAD ID: 63133
Int'l Code: 2025-043B
Perigee: 362.2 km
Apogee: 365.0 km
Inclination: 43.0 °
Period: 91.7 minutes
Semi major axis: 6734 km
RCS: Unknown
Launch date: March 2, 2024
Source: United States (US)
Launch site: AIR FORCE EASTERN TEST RANGE (AFETR)
Your satellite tracking list
STARLINK-3349
Track 1 satellite(s)




NASA's NSSDC Master Catalog

Two Line Element Set (TLE):
1 63133U 25043B   25199.42433617  .00150241  00000-0  11526-2 0  9996
2 63133  43.0028 223.2067 0002100 268.0634  91.9993 15.70854119 22509
Source of the keplerian elements: AFSPC